Le nostre stazioni meteo in Italia

Pubblicità
Il mio iltempo24.it
Isola Di Salina, Italia (16415): Temperatura & dewpoint: 16.10.2018 08:00:00 - 22.10.2018 08:00:00 (CEST)Isola Di Salina, Italia (16415): velocità del vento: 16.10.2018 08:00:00 - 22.10.2018 08:00:00 (CEST)Isola Di Salina, Italia (16415): direzione del vento: 16.10.2018 08:00:00 - 22.10.2018 08:00:00 (CEST)Isola Di Salina, Italia (16415): reduced air pressure: 16.10.2018 08:00:00 - 22.10.2018 08:00:00 (CEST)Isola Di Salina, Italia (16415): precipitazioni: 16.10.2018 08:00:00 - 22.10.2018 08:00:00 (CEST)
Data & Tempo tt [°C] td [°C] ff [km/h] ff [kn] dd ppp [hPa] rr [mm]
22.10.2018 08:00:00 14,6 13,9 0 0 N 1011,0 -
22.10.2018 07:00:00 14,7 14,2 0 0 N 1011,4 -
22.10.2018 06:00:00 14,7 14,2 0 0 N 1012,1 -
22.10.2018 05:00:00 17,0 15,5 0 0 N 1010,0 -
22.10.2018 04:00:00 18,8 17,4 0 0 N 1010,8 -
22.10.2018 03:00:00 18,9 17,5 0 0 N 1011,5 -
22.10.2018 02:00:00 18,7 17,1 0 0 N 1012,6 0,0
22.10.2018 01:00:00 18,5 16,9 0 0 N 1013,4 -
22.10.2018 00:00:00 18,7 17,1 0 0 N 1013,6 -
21.10.2018 23:00:00 18,5 16,9 0 0 N 1014,4 -
21.10.2018 22:00:00 18,7 17,1 0 0 N 1014,6 -
21.10.2018 21:00:00 18,4 16,1 0 0 N 1014,6 -
21.10.2018 20:00:00 18,3 16,9 0 0 N 1015,0 0,0
21.10.2018 19:00:00 18,7 17,5 0 0 N 1014,9 -
21.10.2018 18:00:00 19,3 18,1 0 0 N 1014,9 -
21.10.2018 17:00:00 19,6 18,4 0 0 N 1015,1 -
21.10.2018 16:00:00 20,5 18,9 0 0 N 1015,6 -
21.10.2018 15:00:00 19,7 18,1 0 0 N 1016,3 -
21.10.2018 14:00:00 20,0 18,2 0 0 N 1016,7 0,0
21.10.2018 13:00:00 21,5 19,7 0 0 N 1017,3 -
21.10.2018 12:00:00 21,4 19,6 0 0 N 1017,7 -
21.10.2018 11:00:00 20,7 19,3 0 0 N 1017,8 -
21.10.2018 10:00:00 20,3 19,1 0 0 N 1018,1 -
21.10.2018 09:00:00 18,9 18,2 0 0 N 1018,2 -
21.10.2018 08:00:00 17,4 16,9 0 0 N 1018,0 0,0
21.10.2018 07:00:00 17,2 16,7 0 0 N 1018,3 -
21.10.2018 06:00:00 17,0 16,3 0 0 N 1018,4 -
21.10.2018 05:00:00 17,2 16,5 0 0 N 1018,5 -
21.10.2018 04:00:00 17,1 16,4 0 0 N 1018,7 -
21.10.2018 03:00:00 17,6 17,1 0 0 N 1019,2 -
21.10.2018 02:00:00 17,9 17,4 0 0 N 1019,6 0,0
21.10.2018 01:00:00 17,9 17,4 0 0 N 1020,0 -
21.10.2018 00:00:00 18,2 17,7 0 0 N 1020,3 -
20.10.2018 23:00:00 18,2 17,3 0 0 N 1020,2 -
20.10.2018 22:00:00 18,7 17,8 0 0 N 1020,0 -
20.10.2018 21:00:00 18,7 17,7 0 0 N 1019,9 -
20.10.2018 20:00:00 18,8 17,8 0 0 N 1020,0 0,0
20.10.2018 19:00:00 19,2 18,2 0 0 N 1019,6 -
20.10.2018 18:00:00 20,0 18,6 0 0 N 1019,4 -
20.10.2018 17:00:00 20,6 18,8 0 0 N 1019,5 -
20.10.2018 16:00:00 21,6 17,7 0 0 N 1019,6 -
20.10.2018 15:00:00 22,2 18,3 0 0 N 1019,6 -
20.10.2018 14:00:00 22,8 18,5 0 0 N 1019,9 0,0
20.10.2018 13:00:00 23,0 18,7 0 0 N 1020,2 -
20.10.2018 12:00:00 23,8 19,7 0 0 N 1020,1 -
20.10.2018 11:00:00 23,0 20,1 0 0 N 1019,9 -
20.10.2018 10:00:00 21,9 20,1 0 0 N 1019,6 -
20.10.2018 09:00:00 20,8 19,2 0 0 N 1019,2 -
20.10.2018 08:00:00 19,2 17,6 0 0 N 1018,7 0,0
20.10.2018 07:00:00 18,8 17,9 0 0 N 1018,5 -
20.10.2018 06:00:00 18,7 17,8 0 0 N 1018,4 -
20.10.2018 05:00:00 18,7 17,7 0 0 N 1018,1 -
20.10.2018 04:00:00 18,9 17,9 0 0 N 1017,9 -
20.10.2018 03:00:00 19,3 18,3 0 0 N 1017,7 -
20.10.2018 02:00:00 19,5 18,6 0 0 N 1017,5 0,0
20.10.2018 01:00:00 19,5 18,1 0 0 N 1017,2 -
20.10.2018 00:00:00 19,9 18,8 0 0 N 1017,1 -
19.10.2018 23:00:00 20,5 19,3 0 0 N 1016,8 -
19.10.2018 22:00:00 21,2 18,9 0 0 N 1016,4 -
19.10.2018 21:00:00 21,3 16,4 0 0 N 1016,0 -
19.10.2018 20:00:00 21,2 16,7 0 0 N 1015,5 -
19.10.2018 19:00:00 20,4 19,2 0 0 N 1014,7 -
19.10.2018 18:00:00 21,0 19,8 0 0 N 1013,9 -
19.10.2018 17:00:00 21,1 19,7 0 0 N 1013,6 -
19.10.2018 16:00:00 22,3 20,2 0 0 N 1013,9 -
19.10.2018 15:00:00 22,7 20,4 0 0 N 1013,7 -
19.10.2018 14:00:00 22,9 20,4 0 0 N 1013,7 0,0
19.10.2018 13:00:00 22,8 20,8 0 0 N 1013,8 -
19.10.2018 12:00:00 22,1 20,3 0 0 N 1013,7 -
19.10.2018 11:00:00 22,0 20,2 0 0 N 1013,1 -
19.10.2018 10:00:00 21,7 20,5 0 0 N 1013,2 -
19.10.2018 09:00:00 20,7 19,6 0 0 N 1012,9 -
19.10.2018 08:00:00 20,3 19,4 0 0 N 1011,8 0,0
19.10.2018 07:00:00 19,8 18,7 0 0 N 1011,5 -
19.10.2018 06:00:00 19,9 18,8 0 0 N 1011,6 -
19.10.2018 05:00:00 20,1 19,0 0 0 N 1011,4 -
19.10.2018 04:00:00 20,1 18,9 0 0 N 1011,4 -
19.10.2018 03:00:00 19,2 15,0 0 0 N 1012,0 -
19.10.2018 02:00:00 19,7 17,2 0 0 N 1013,6 0,0
19.10.2018 01:00:00 19,0 15,4 0 0 N 1012,7 -
19.10.2018 00:00:00 18,8 13,3 0 0 N 1012,8 -
18.10.2018 23:00:00 19,4 13,3 0 0 N 1012,8 -
18.10.2018 22:00:00 20,0 13,1 0 0 N 1012,1 -
18.10.2018 21:00:00 20,5 12,4 0 0 N 1011,8 -
18.10.2018 20:00:00 20,8 19,6 0 0 N 1011,5 -
18.10.2018 19:00:00 21,1 17,8 0 0 N 1009,3 -
18.10.2018 18:00:00 21,4 17,3 0 0 N 1008,3 -
18.10.2018 17:00:00 21,4 19,1 0 0 N 1008,6 -
18.10.2018 16:00:00 21,4 19,1 0 0 N 1009,0 -
18.10.2018 15:00:00 21,7 19,7 0 0 N 1008,9 -
18.10.2018 14:00:00 21,6 20,0 0 0 N 1009,4 -
18.10.2018 13:00:00 22,1 20,3 0 0 N 1009,7 -
18.10.2018 12:00:00 21,7 19,9 0 0 N 1010,2 -
18.10.2018 11:00:00 22,1 20,3 0 0 N 1010,5 -
18.10.2018 10:00:00 21,3 19,7 0 0 N 1010,8 -
18.10.2018 09:00:00 21,0 19,2 0 0 N 1010,4 -
18.10.2018 08:00:00 20,5 19,1 0 0 N 1009,6 0,0
18.10.2018 07:00:00 20,3 19,2 0 0 N 1009,7 -
18.10.2018 06:00:00 20,2 19,0 0 0 N 1010,2 -
18.10.2018 05:00:00 20,4 19,2 0 0 N 1010,0 -
18.10.2018 04:00:00 20,5 19,1 0 0 N 1010,4 -
18.10.2018 03:00:00 20,3 19,2 0 0 N 1011,1 -
18.10.2018 02:00:00 20,5 19,3 0 0 N 1011,5 0,0
18.10.2018 01:00:00 20,4 19,2 0 0 N 1012,1 -
18.10.2018 00:00:00 20,6 19,2 0 0 N 1012,7 -
17.10.2018 23:00:00 20,6 18,8 0 0 N 1013,2 -
17.10.2018 22:00:00 20,7 18,9 0 0 N 1013,2 -
17.10.2018 21:00:00 21,0 19,2 0 0 N 1013,0 -
17.10.2018 20:00:00 20,9 19,0 0 0 N 1013,2 0,0
17.10.2018 19:00:00 21,3 19,5 0 0 N 1013,0 -
17.10.2018 18:00:00 21,6 19,1 0 0 N 1012,8 -
17.10.2018 17:00:00 22,0 19,9 0 0 N 1013,3 -
17.10.2018 16:00:00 23,0 21,0 0 0 N 1013,7 -
17.10.2018 15:00:00 22,2 19,9 0 0 N 1013,3 -
17.10.2018 14:00:00 23,0 21,2 0 0 N 1014,2 0,0
17.10.2018 13:00:00 23,3 20,4 0 0 N 1014,9 -
17.10.2018 12:00:00 23,3 21,0 0 0 N 1015,3 -
17.10.2018 11:00:00 23,2 21,6 0 0 N 1015,3 -
17.10.2018 10:00:00 22,6 21,4 0 0 N 1015,2 -
17.10.2018 09:00:00 21,7 20,6 0 0 N 1015,4 -
17.10.2018 08:00:00 19,7 18,5 0 0 N 1015,4 0,0
17.10.2018 07:00:00 19,6 18,6 0 0 N 1015,3 -
17.10.2018 06:00:00 19,7 18,5 0 0 N 1015,3 -
17.10.2018 05:00:00 19,9 18,1 0 0 N 1015,2 -
17.10.2018 04:00:00 20,1 18,7 0 0 N 1015,5 -
17.10.2018 03:00:00 20,1 18,5 0 0 N 1015,8 -
17.10.2018 02:00:00 20,2 18,6 0 0 N 1016,2 0,0
17.10.2018 01:00:00 20,0 18,2 0 0 N 1016,5 -
17.10.2018 00:00:00 20,6 18,8 0 0 N 1016,8 -
16.10.2018 23:00:00 20,9 18,0 0 0 N 1016,9 -
16.10.2018 22:00:00 21,2 17,3 0 0 N 1017,1 -
16.10.2018 21:00:00 21,5 16,6 0 0 N 1016,9 -
16.10.2018 20:00:00 21,1 17,4 0 0 N 1016,8 0,0
16.10.2018 19:00:00 20,8 17,3 0 0 N 1016,7 -
16.10.2018 18:00:00 21,3 19,0 0 0 N 1016,6 -
16.10.2018 17:00:00 21,6 18,3 0 0 N 1016,6 -
16.10.2018 16:00:00 22,6 18,7 0 0 N 1016,4 -
16.10.2018 15:00:00 23,4 20,9 0 0 N 1016,4 -
16.10.2018 14:00:00 22,9 20,2 0 0 N 1016,8 0,0
16.10.2018 13:00:00 23,3 21,5 0 0 N 1017,1 -
16.10.2018 12:00:00 22,5 20,9 0 0 N 1017,0 -
16.10.2018 11:00:00 22,4 21,0 0 0 N 1016,6 -
16.10.2018 10:00:00 21,9 21,0 0 0 N 1016,8 -
16.10.2018 09:00:00 20,1 19,2 0 0 N 1016,7 -
16.10.2018 08:00:00 18,5 17,6 0 0 N 1016,1 0,0

tt = Temperatura
td = dewpoint
ff = velocità del vento
dd = direzione del vento
ppp = reduced air pressure
rr = precipitazioni

Stazioni seguenti

WeatherPro
AMSI
MeteoEarth